Location: Goll?ig?dem
(16.6773°N, 80.7332°E)
Time: 06:44:27
(UTC+00:00)

RESURS DK-1 - Pass Details

Date: 21 April 2021
Orbit: 554 x 563 km, 69.9° (Epoch: 06 May)

Event Time Altitude Azimuth Distance (km) Brightness Sun altitude
Rises 23:49:31 0° 353° (N) 2,746 6.0 -7.3°
Reaches altitude 10° 23:51:50 10° 1° (N) 1,849 5.2 -6.7°
Maximum altitude 23:55:42 38° 70° (ENE) 859 4.1 -5.8°
Drops below altitude 10° 23:59:33 10° 140° (SE) 1,845 5.4 -4.9°
Sets 00:01:51 0° 148° (SSE) 2,738 6.1 -4.4°
